Regional Weather Roundup
Issued by NWS Goodland, KS

Home | Current Version | Previous Version | Text Only | Print | Product List | Glossary Off
Versions: 1 2 3 4 5 6 7 8 9 10 11 12 13 14 15 16 17 18 19 20 21 22 23 24 25 26 27 28 29 30 31 32 33 34 35 36 37 38 39 40 41 42 43 44 45 46 47 48 49 50

000
ASUS43 KGLD 312008
RWRGLD

GOODLAND FORECAST AREA HOURLY WEATHER ROUNDUP
NATIONAL WEATHER SERVICE GOODLAND KS
200 PM MDT FRI JUL 31 2015

...OFFICIAL OBSERVATIONS...

CITY           SKY/WX    TMP DP  RH WIND       PRES   REMARKS
GOODLAND KS    MOSUNNY   87  62  43 SW12      30.22F
HILL CITY KS   SUNNY     93  60  33 S7        30.15F
IMPERIAL NEB   SUNNY     90  56  31 VRB5      30.19F
MCCOOK NEB     SUNNY     93  61  34 S8        30.15F
AKRON CO       MOSUNNY   88  46  23 SE9       30.25F
BURLINGTON CO  MOSUNNY   85  58  39 S9G18     30.26F
LIMON CO       MOSUNNY   84  55  36 SE13      30.31F
$$

...UNOFFICIAL OBSERVATIONS...

CITY           SKY/WX    TMP DP  RH WIND       PRES   REMARKS
COLBY KS       SUNNY     90  63  40 SE8       30.20F
NORTON KS      SUNNY     91  57  31 S8        30.15F
SHARON SPRINGS   N/A     88  67  49 SE6G14      N/A
KIT CARSON CO    N/A     86  58  38 MISG        N/A
YUMA CO          N/A     87  62  42 SE7         N/A
$$



USA.gov is the U.S. government's official web portal to all federal, state and local government web resources and services.